Flag for Germany Weather past 2 weeks in Wolfenbüttel, Lower Saxony, Germany

Now
55 °F

Passing clouds.


Feels Like: 53 °F
Forecast: 46 / 58 °F
Wind: 8 mph from West

Location: Braunschweig

Current Time: Oct 20, 2014 at 8:31:31 PM

Latest Report: Oct 20, 2014 at 7:50 PM


Visibility: N/A

Pressure: 29.92 "Hg

Humidity: 94%

Dew point: 54 °F

Location of WolfenbüttelLocation

Historic Weather in Wolfenbüttel — Graph

°F

Wolfenbüttel temperature yesterday

Maximum temperature yesterday: 72 °F (at 3:50 PM)
Minimum temperature yesterday: 63 °F (at 9:50 AM)
Average temperature yesterday: 69 °F

Past Weeks' High & Low Weather Summary

 TemperatureHumidityPressure
High72 °F (Oct 19, 3:50 PM)100% (Oct 6, 6:50 AM)30.18 "Hg (Oct 6, 6:50 AM)
Low48 °F (Oct 15, 9:20 PM)52% (Oct 14, 2:20 PM)29.59 "Hg (Oct 7, 1:20 PM)
Average59 °F88%29.81 "Hg
* Reported Oct 6 6:50 AM — Oct 20 7:20 PM, Wolfenbüttel, Weather by CustomWeather, © 2014

Note: Actual official high and low records may vary slightly from our data, if they occured in-between our weather recording intervals... More about our weather records

Advertising

Wolfenbüttel weather history for previous 24 hours

 ConditionsComfort  
Time TempWeatherWind HumidityBarometerVisibility
7:20 PM
Oct 20
55 °FPassing clouds.9 mph100%29.92 "HgN/A
6:50 PM54 °FPartly sunny.6 mph100%29.92 "HgN/A
6:20 PM55 °FPartly sunny.6 mph94%29.92 "HgN/A
5:50 PM55 °FScattered clouds.8 mph100%29.92 "HgN/A
5:20 PM55 °FPassing clouds.9 mph100%29.92 "HgN/A
4:50 PM55 °FOvercast.13 mph100%29.92 "HgN/A
4:20 PM57 °FPassing clouds.9 mph100%29.92 "HgN/A
3:50 PM57 °FMostly cloudy.8 mph100%29.92 "HgN/A
3:20 PM57 °FLight rain. Mostly cloudy.10 mph94%29.92 "Hg6 mi
3:00 PM59 °FLight rain. Mostly cloudy.16 mph82%29.95 "HgN/A
2:20 PM59 °FLight rain. Mostly cloudy.20 mph82%29.92 "HgN/A
1:50 PM59 °FCloudy.17 mph82%29.92 "HgN/A
1:20 PM61 °FMostly cloudy.18 mph77%29.92 "HgN/A
12:50 PM59 °FCloudy.17 mph82%29.95 "HgN/A
12:20 PM59 °FCloudy.15 mph82%29.95 "HgN/A
11:50 AM59 °FBroken clouds.16 mph82%29.95 "HgN/A
11:20 AM59 °FMore clouds than sun.14 mph82%29.92 "HgN/A
10:50 AM59 °FPartly sunny.15 mph82%29.92 "HgN/A
10:20 AM59 °FMostly cloudy.15 mph77%29.92 "HgN/A
9:50 AM57 °FCloudy.14 mph82%29.92 "HgN/A
9:20 AM57 °FCloudy.15 mph82%29.92 "HgN/A
8:50 AM57 °FPassing clouds.15 mph82%29.92 "HgN/A
8:20 AM57 °FPassing clouds.16 mph82%29.92 "HgN/A
7:50 AM55 °FClear.14 mph88%29.92 "Hg10 mi
7:20 AM57 °FPassing clouds.15 mph82%29.89 "HgN/A
6:50 AM57 °FPassing clouds.14 mph82%29.92 "HgN/A
Weather by CustomWeather, © 2014

See weather overviewHow to use our weather pages